Lid_Strength_Index
0 0 0 0 0 0 0 0 0 0 0 1 1 1 1 1 2 2 2 1 1 1 1 1 1 0 5 6 7 6 2 5 7 7 8 8 8 8 9 10 10 10 11 11 12 12 12
0 0 0 0 0 -0 -0 0 1 0 0 0 1 1 2 2 2 2 1 1 1 1 1 1 1 2 5 7 6 5 7 6 7 6 7 7 8 7 9 10 10 10 11 11 11 11 11
0 0 0 -0 -0 -0 -0 0 1 1 0 0 1 1 2 2 2 2 2 2 2 2 2 1 1 5 5 8 6 5 6 7 7 7 8 8 8 7 8 10 10 10 10 11 11 11 11
0 0 -0 -0 -0 -0 -0 0 0 0 0 1 1 2 2 2 2 2 2 2 2 1 1 2 2 5 7 7 5 5 5 6 6 6 7 7 6 8 8 9 10 10 10 10 11 11 11
0 0 -0 -0 -0 -0 -0 0 0 0 1 1 1 2 2 2 2 2 2 3 2 2 3 3 4 4 7 6 6 5 6 7 7 7 7 7 7 8 8 8 9 8 10 10 10 12 12
0 -0 -0 -0 -0 -0 -0 0 0 1 1 1 2 2 2 2 2 2 3 4 2 5 5 5 5 5 6 7 7 7 6 7 7 7 6 6 6 7 8 9 12 12 11 10 11 11 12
0 0 0 -0 -0 -0 -0 0 1 1 1 1 2 2 3 2 2 4 4 4 5 4 6 8 8 8 7 6 7 6 7 7 6 6 7 7 8 11 12 12 12 12 12 12 10 12 13
0 0 0 0 -0 -0 0 1 1 1 1 2 2 2 3 3 3 5 4 5 8 6 8 8 8 8 8 8 7 6 6 6 6 8 7 7 10 12 13 13 13 12 12 11 10 12 13
0 0 0 0 -0 -0 0 1 1 1 1 2 2 2 3 3 4 5 6 7 6 6 6 8 8 8 8 7 8 8 7 7 8 8 9 9 12 13 13 12 12 10 12 12 14 13 11
0 0 1 0 0 1 1 1 1 1 1 2 2 3 3 4 5 6 7 7 6 6 8 9 8 8 7 7 8 7 7 8 8 9 10 10 12 13 13 12 13 13 13 14 14 15 16
1 1 1 0 0 1 1 1 1 1 1 2 2 3 4 4 6 7 8 6 5 5 16 9 8 7 7 8 8 8 8 7 9 10 9 11 12 12 12 12 13 12 13 14 15 16 17
1 1 1 1 1 1 1 1 1 1 2 2 2 3 4 4 5 7 6 5 4 9 19 10 9 9 9 8 8 8 8 7 8 9 9 12 13 12 13 13 13 12 12 12 14 15 19
1 1 1 1 1 1 1 1 1 1 1 2 3 4 5 6 6 5 4 3 9 12 10 11 10 10 10 10 10 9 10 9 10 12 11 11 12 13 13 12 12 11 12 18 19 20 18
1 2 1 1 1 1 1 1 1 1 1 2 4 4 5 5 5 4 3 6 12 11 11 10 11 11 11 11 10 10 10 10 11 10 11 13 13 13 14 13 14 13 14 17 21 18 16
2 2 1 1 1 2 2 2 2 2 2 2 4 2 2 4 4 3 4 10 10 10 11 11 11 12 11 11 12 10 10 10 11 11 13 12 12 15 15 14 14 13 13 14 16 17 18
1 2 2 1 2 2 2 2 2 2 2 3 2 3 3 4 4 4 6 10 10 11 11 11 12 11 12 11 11 11 10 10 12 13 12 11 15 13 16 14 14 13 14 15 15 20 20
2 2 1 2 3 3 3 3 2 2 2 4 3 5 4 4 5 5 10 9 10 12 11 11 11 12 11 12 11 11 11 12 12 14 12 11 12 14 14 14 13 15 14 15 16 15 19
1 1 2 2 3 3 3 3 3 2 2 3 3 7 3 5 7 8 9 11 11 12 11 11 11 11 11 11 12 12 11 11 12 12 13 13 14 15 12 18 17 15 14 14 16 17 16
1 2 3 3 3 3 3 3 3 3 3 3 5 5 2 4 8 9 11 11 11 12 11 12 12 11 11 12 13 11 11 13 12 13 12 14 13 16 14 16 17 16 15 14 15 15 16
2 3 3 4 4 4 4 4 4 3 3 3 4 7 5 5 7 8 9 10 11 11 11 12 12 12 13 13 12 13 12 13 13 13 13 12 12 14 16 14 12 14 15 15 15 16 16
3 4 4 4 4 4 4 4 4 3 3 2 5 8 8 9 7 8 9 10 11 11 12 12 12 13 12 13 12 13 12 12 13 12 13 13 16 13 12 11 12 13 13 14 18 15 16
4 4 5 5 4 4 4 4 4 4 3 3 6 7 7 8 9 9 9 10 11 10 11 12 13 11 12 13 11 12 10 10 11 14 14 14 16 15 16 14 15 16 14 14 14 14 14
5 5 5 5 5 5 5 5 5 4 2 3 4 5 5 8 9 9 8 9 10 9 8 9 10 11 11 10 9 8 9 9 10 13 16 17 18 18 19 14 15 18 16 15 14 13 13
5 5 5 5 5 6 6 5 5 5 4 4 5 5 8 9 9 8 8 8 9 9 10 8 9 10 10 9 9 9 10 10 10 10 12 18 18 17 19 17 20 13 14 15 15 14 13
5 5 5 6 6 7 6 6 6 6 5 6 6 7 9 10 8 9 8 9 8 8 9 9 8 10 10 10 12 14 14 14 14 15 14 14 17 18 19 17 15 13 15 15 16 15 14
6 5 6 6 6 6 7 6 6 7 6 6 8 7 9 12 10 9 10 10 11 12 11 10 11 11 11 12 13 18 19 16 16 18 17 17 16 17 16 19 19 15 14 13 13 15 12
6 6 7 7 7 7 7 7 7 7 7 7 9 7 9 14 10 11 13 12 11 11 13 12 13 12 12 13 16 17 17 14 17 16 18 17 17 17 16 16 14 13 12 11 15 14 10
7 7 7 7 7 7 7 7 7 7 7 8 10 8 10 13 12 12 12 13 13 13 15 13 14 14 14 15 15 15 16 15 15 15 15 15 15 15 14 16 17 11 10 13 10 9 9
7 7 7 7 8 8 8 7 7 7 7 8 10 9 9 12 12 11 12 12 12 12 13 13 13 13 11 13 13 13 14 13 14 17 12 15 12 13 12 12 7 8 8 8 8 9 9